Dewpoint
25 27 28 28 29 28 27 27 27 28 30 31 33 31 31 32 34 35 38 42 45 45 47 49 53 58 60
26 26 27 28 28 28 26 26 27 27 30 29 31 30 30 30 32 35 36 37 40 42 45 46 48 51 58
25 26 26 27 26 26 25 25 26 26 27 28 29 29 29 29 31 35 36 37 37 41 43 44 45 47 50
25 24 24 24 23 23 23 24 25 26 27 27 27 26 27 28 32 33 31 39 39 40 43 44 45 46 48
23 23 23 21 22 23 23 25 25 26 25 24 24 24 24 27 30 26 27 34 38 37 38 41 42 43 45
23 21 21 21 21 22 24 26 23 23 22 22 23 23 24 26 25 25 27 34 33 33 33 35 39 41 43
23 22 22 22 24 26 26 25 22 22 22 22 22 21 23 23 24 25 28 29 26 27 30 32 33 38 42
24 25 25 26 28 27 26 23 22 21 20 21 20 21 22 23 23 25 27 25 25 25 28 29 31 35 40
26 25 25 26 25 26 24 22 20 19 19 20 21 21 23 24 22 23 24 23 23 25 25 27 31 33 37
22 21 21 22 23 23 22 21 21 21 18 19 21 22 20 20 21 23 22 22 22 23 25 28 30 35 35
20 19 17 18 19 21 22 23 23 22 22 23 23 23 23 23 22 23 23 23 24 25 24 26 31 30 32
16 16 17 19 20 22 23 24 24 23 24 25 24 24 23 22 22 21 23 24 25 26 27 29 27 30 31
17 18 20 22 22 23 24 23 24 23 22 24 26 25 25 23 22 22 21 23 25 26 26 27 29 30 31
20 20 21 22 22 22 22 22 21 20 21 22 25 25 23 24 24 23 23 22 24 26 27 28 28 30 32
20 20 20 20 20 21 21 21 20 20 20 21 23 24 25 23 23 22 22 22 24 25 27 27 28 30 31
21 21 21 21 21 21 21 20 20 19 19 19 20 21 21 22 25 24 23 22 23 24 24 23 25 28 30
22 22 21 21 20 20 19 19 19 19 20 19 20 20 17 16 19 20 22 22 22 22 24 25 25 27 30
Wind_Speed
15 15 18 18 17 15 16 15 15 18 21 24 18 23 26 26 27 27 25 25 25 26 28 32 27 32 37
16 16 16 16 17 19 18 16 16 18 22 21 17 25 25 26 25 26 25 26 28 27 26 30 31 33 35
17 15 16 15 16 17 17 18 16 20 21 17 19 26 26 25 24 24 26 29 28 26 26 28 30 32 36
15 16 15 15 15 16 18 16 19 19 18 17 22 24 24 23 20 21 27 33 24 23 24 24 25 30 31
15 15 16 15 16 16 18 16 17 18 18 17 19 18 18 18 16 24 27 26 25 27 27 29 28 30 33
17 18 18 17 17 17 18 17 20 15 19 21 18 19 18 16 20 27 26 20 24 26 28 27 31 29 31
19 19 20 18 17 17 17 20 21 20 20 22 19 19 18 17 24 24 20 22 27 27 27 27 28 30 30
17 17 17 16 17 18 20 23 20 17 16 22 20 20 18 20 23 20 17 28 25 28 27 29 28 28 29
19 22 23 23 22 18 18 18 20 19 16 17 15 19 20 21 16 18 26 23 27 27 30 29 27 27 24
21 21 19 18 19 18 17 17 18 19 10 15 19 17 15 17 12 19 18 24 25 30 29 25 25 17 18
18 16 16 15 13 12 14 15 17 19 18 17 17 18 15 20 19 18 19 18 21 21 23 24 21 23 18
15 16 15 14 14 13 15 16 16 20 18 17 16 18 19 22 24 18 19 18 18 21 19 18 25 22 21
15 15 14 13 14 15 15 17 16 16 17 18 17 17 17 20 22 22 21 21 18 14 19 19 19 18 21
16 16 14 13 13 13 15 14 16 17 15 17 18 16 17 18 19 21 18 17 20 18 19 19 18 16 16
13 14 15 14 14 13 14 14 16 16 16 14 13 14 15 19 19 18 20 18 17 19 19 19 17 15 15
13 14 16 15 15 14 14 15 16 16 16 15 15 16 16 15 20 18 16 17 17 18 19 20 21 14 13
15 15 16 16 18 16 15 15 16 16 15 15 15 15 17 20 15 14 14 15 20 20 17 16 19 18 16
Wind_Direction
303 313 314 317 319 321 320 318 316 321 322 327 329 332 331 328 327 324 321 321 324 329 327 330 317 289 249
301 306 309 312 314 318 320 318 319 316 320 320 320 329 328 326 326 328 328 324 321 320 324 322 323 323 278
301 307 309 314 314 317 316 316 316 320 316 313 319 325 326 325 326 331 334 325 317 316 318 318 314 318 325
297 301 303 306 308 310 313 312 320 315 307 310 316 317 319 323 323 327 327 336 323 321 313 315 324 328 319
293 298 298 307 311 311 306 319 306 303 308 314 312 312 314 317 315 326 323 323 336 336 334 331 328 327 324
294 295 301 305 304 309 312 304 310 304 315 307 308 308 306 306 317 319 319 317 327 327 326 328 323 324 319
289 290 298 301 309 300 297 301 302 307 308 302 308 302 305 305 313 316 315 322 323 322 320 321 320 315 315
286 290 288 290 287 291 300 297 294 296 302 296 303 300 306 306 305 307 310 321 319 321 318 318 316 312 311
284 285 287 289 290 296 289 291 293 295 304 288 301 310 306 296 296 305 314 313 317 317 316 315 313 315 307
294 295 294 291 290 281 283 283 289 297 291 307 307 307 305 295 300 308 307 311 312 315 313 311 315 313 319
292 294 293 289 287 289 289 288 287 282 287 294 293 295 283 293 295 300 302 308 312 309 310 311 310 317 312
291 290 293 293 289 285 288 286 282 282 289 285 279 282 287 289 293 303 303 305 309 305 307 305 311 311 308
286 289 288 288 292 289 275 272 265 273 277 279 275 283 276 281 289 293 303 308 303 304 310 303 307 311 312
288 290 292 283 274 278 281 283 290 291 279 278 274 276 281 278 280 287 295 288 299 303 303 304 307 305 300
287 289 289 289 286 287 283 286 281 285 288 289 294 285 276 276 279 280 290 298 299 299 304 302 297 298 303
290 286 286 288 285 282 277 276 280 284 286 289 294 293 293 274 247 266 279 291 298 301 297 298 299 301 301
283 281 284 280 284 283 281 280 280 280 279 282 279 281 287 286 296 265 278 285 299 297 291 288 292 298 303